Погода в Варжинье

Бразилия     21°34′02″S   45°26′14″W
темп.,
°C
ветер,
м/с
пор.,
м/с
влажн.,
%
обл.,
%
осадки,
мм/ч
давл.,
гПа
погр.,
м
27 февраля, сб
сб2700:00+18в1295100 0.1 101643
03:00+17в2797100 0.3 1014261
06:00+18всв2798100 1.8 1015351
09:00+18св2796100 3.4 1016505
12:00+19всв2796100 3.6 1016421
15:00+19всв2895100 4.6 1014496
18:00+18в2595100 0.6 1014160
21:00+18в2291100 0.6 101533
28 февраля, вс
вс2800:00+17в2795100 0.0 1016284
03:00+17всв2795100 0.0 1014270
06:00+15в249714 0.0 101597
09:00+21всв368945 1.0 1016380
12:00+24ссв467692 3.6 10151017
15:00+25ссв357074 4.7 10121376
18:00+21всв358849 0.7 1012139
21:00+18в239152 0.7 101447
1 марта, пн
пн100:00+17всв229542 0.0 101553
03:00+17всв289737 0.0 1014249
06:00+16в249738 0.0 1015116
09:00+21всв248431 0.0 1016654
12:00+25ссв346890 0.1 10141171
15:00+25ссв337195 0.2 10121064
18:00+22св2282100 0.0 101228
21:00+20всв2284100 0.1 101426
2 марта, вт
вт200:00+18всв279597 0.5 1015231
03:00+17всв249696 0.6 1015128
06:00+17всв129698 0.0 101633
09:00+21ссв248098 0.0 1017655
12:00+25ссв346980 0.1 10161163
15:00+25ссв237185 0.6 10131111
18:00+23св128026 0.1 101323
21:00+19всв118924 0.3 101623
3 марта, ср
ср300:00+18всв229298 0.2 101731
03:00+17всв119499 0.2 101624
06:00+16в129599 0.0 101823
09:00+22ссв257999 0.0 1019590
12:00+25ссз346879 0.3 10171191
15:00+26сз236265 0.6 10141430
18:00+22ссв238656 1.1 101468
21:00+19всв118978 1.9 101723